This is the latest recevied weather packets stored in our database for station/object KG5MMT-12. If no packets are shown the sender has not sent any weather packets the latest 10 day(s).
| Time | Temp. | Humidity | Pressure | Rain* | Wind** | Luminosity | Snow |
|---|---|---|---|---|---|---|---|
| 1777735737 | 9.44° C | 47% | 0 hPa | 0 mm | - | - | - |
| 1777735437 | 9.44° C | 43% | 0 hPa | 0 mm | - | - | - |
| 1777735137 | 8.89° C | 37% | 0 hPa | 0 mm | - | - | - |
| 1777734837 | 8.89° C | 46% | 0 hPa | 0 mm | - | - | - |
| 1777734537 | 8.33° C | 40% | 0 hPa | 0 mm | - | - | - |
| 1777734237 | 8.33° C | 51% | 0 hPa | 0 mm | - | - | - |
| 1777733937 | 7.22° C | 65% | 0 hPa | 0 mm | - | - | - |
| 1777733637 | 6.11° C | 66% | 0 hPa | 0 mm | - | - | - |
| 1777733337 | 5° C | 67% | 0 hPa | 0 mm | - | - | - |
| 1777733037 | 3.33° C | 86% | 0 hPa | 0 mm | - | - | - |
| 1777732737 | 2.78° C | 88% | 0 hPa | 0 mm | - | - | - |
| 1777732438 | 2.78° C | 92% | 0 hPa | 0 mm | - | - | - |
| 1777732137 | 2.22° C | 93% | 0 hPa | 0 mm | - | - | - |
| 1777731837 | 1.67° C | 95% | 0 hPa | 0 mm | - | - | - |
| 1777731537 | 1.11° C | 96% | 0 hPa | 0 mm | - | - | - |
| 1777731238 | 1.11° C | 96% | 0 hPa | 0 mm | - | - | - |
| 1777730940 | 1.11° C | 97% | 0 hPa | 0 mm | - | - | - |
| 1777730638 | 0.56° C | 97% | 0 hPa | 0 mm | - | - | - |
| 1777730338 | 0.56° C | 97% | 0 hPa | 0 mm | - | - | - |
| 1777730038 | 0.56° C | 97% | 0 hPa | 0 mm | - | - | - |
| 1777729738 | 0.56° C | 97% | 0 hPa | 0 mm | - | - | - |
| 1777729437 | 0.56° C | 97% | 0 hPa | 0 mm | - | - | - |
| 1777729138 | 0.56° C | 97% | 0 hPa | 0 mm | - | - | - |
| 1777728838 | 0.56° C | 97% | 0 hPa | 0 mm | - | - | - |
| 1777728538 | 0.56° C | 97% | 0 hPa | 0 mm | - | - | - |
* Rain latest hour (hover to see other rain measurements)
** Current wind speed in m/s (hover to see current wind gust speed)